[[{"header":{"parameterUnit":"m.s-1","parameterCategory":1,"la1":30.2991,"la2":30.254,"lo1":-89.0895,"lo2":-89.0444,"dy":0.0017,"dx":0.0017,"nx":28,"ny":28,"refTime":"2024-08-30T09:00:00:Z","depth":0,"parameterNumber":2,"parameterNumberName":"U-component_of_WINDS"},"data":[0,0,0,0,0,0,0,0,0,0,0,0,0,0,0,0,0,0,0,0,0,0,0,0,0,0,0,0,0,0,0,0,0,0,0,0,0,0,0,0,0,0,0,0,0,0,0,0,0,0,0,0,0,0,0,0,0,0,-6.3821,-6.3821,0,-6.3754,-6.3754,-6.3753,-6.3633,-6.363,-6.3628,-6.3626,-6.3559,-6.356,-6.356,0,0,0,0,0,0,0,0,0,0,0,0,0,-6.3848,-6.3848,-6.3821,-6.382,-6.382,-6.3754,-6.3754,-6.3753,-6.3633,-6.363,-6.3627,-6.3625,-6.3559,-6.356,-6.356,0,0,0,0,0,0,0,0,0,0,0,0,0,-6.3815,-6.3848,-6.3821,-6.3752,-6.3745,-6.3755,-6.3754,-6.3752,-6.3634,-6.363,-6.3627,-6.3624,-6.3559,-6.356,-6.356,-6.3632,0,0,-6.3562,-6.3562,0,0,0,0,0,0,0,0,-6.3817,-6.3814,-6.3763,-6.3757,-6.3749,-6.3698,-6.3738,-6.3712,-6.3635,-6.3676,-6.3626,-6.3622,-6.3608,-6.3605,-6.36,-6.3629,-6.3626,-6.3562,-6.3562,-6.3562,-6.3562,0,0,0,0,0,0,0,-6.3819,-6.3816,-6.3795,-6.3763,-6.3754,-6.3725,-6.3717,-6.3733,-6.3662,-6.3672,-6.3663,-6.3657,-6.3604,-6.36,-6.3597,-6.3625,-6.3562,-6.3562,-6.3563,-6.3563,-6.371,-6.3713,0,0,0,0,0,0,-6.3831,-6.3819,-6.3797,-6.3793,-6.3775,-6.3728,-6.3718,-6.3718,-6.3662,-6.365,-6.366,-6.3652,-6.36,-6.3597,-6.3595,-6.3673,-6.3562,-6.3563,-6.3563,-6.3706,-6.3711,-6.3715,0,0,0,0,0,0,-6.3832,-6.383,-6.38,-6.3803,-6.3797,-6.3731,-6.3732,-6.3719,-6.3714,-6.3653,-6.364,-6.3668,-6.3597,-6.3594,-6.3623,-6.3669,-6.3563,-6.3564,-6.3702,-6.3708,-6.3713,-6.3833,0,0,0,0,0,0,-6.3834,-6.3831,-6.3857,-6.3805,-6.3797,-6.3829,-6.3735,-6.372,-6.3715,-6.3703,-6.3657,-6.3646,-6.3594,-6.3623,-6.3624,-6.3668,-6.3564,-6.3698,-6.3705,-6.3711,-6.3825,-6.3842,-6.3857,0,0,0,0,0,-6.3835,-6.3895,-6.3859,-6.3857,-6.3828,-6.3832,-6.3828,-6.3767,-6.3719,-6.3745,-6.3706,-6.3647,-6.3666,-6.3627,-6.3627,-6.3672,-6.3694,-6.3703,-6.3711,-6.3818,-6.3839,-6.3857,0,0,0,0,0,0,-6.3955,-6.3886,-6.3846,-6.3891,-6.3868,-6.3812,-6.3842,-6.3792,-6.3782,-6.3772,-6.3698,-6.3688,-6.3727,-6.3703,-6.3662,-6.3739,-6.3671,-6.3679,-6.3752,-6.3772,-6.3788,-6.3791,-6.3564,0,0,0,0,0,-6.3986,-6.3994,-6.3935,-6.398,-6.397,-6.3909,-6.3908,-6.3864,-6.3837,-6.3827,-6.379,-6.3767,-6.3767,-6.3769,-6.3766,-6.3823,-6.381,-6.3854,-6.387,-6.3883,-6.389,-6.3917,-6.3935,-6.3741,-6.3741,-6.3741,0,0,-6.4051,-6.4015,-6.4025,-6.4003,-6.398,-6.399,-6.3901,-6.3916,-6.3923,-6.3829,-6.3853,-6.3827,-6.3797,-6.384,-6.3857,-6.3821,-6.3942,-6.3894,-6.3905,-6.3904,-6.3927,-6.3945,-6.3962,-6.3747,-6.3746,-6.3745,0,0,-6.4174,-6.4149,-6.4182,-6.4162,-6.4128,-6.4087,-6.4096,-6.4047,-6.4025,-6.4049,-6.3979,-6.3987,-6.399,-6.3971,-6.3961,-6.408,-6.4025,-6.4082,-6.4164,-6.4191,-6.4206,-6.4219,-6.4259,-6.4274,-6.409,-6.409,-6.409,0,-6.4259,-6.427,-6.4206,-6.4225,-6.4217,-6.4134,-6.4167,-6.4151,-6.4119,-6.4116,-6.4077,-6.4078,-6.4052,-6.4088,-6.4117,-6.4114,-6.412,-6.4084,-6.4209,-6.4221,-6.4233,-6.427,-6.4285,-6.4097,-6.4096,-6.4095,-6.4095,0,-6.4376,-6.4385,-6.4417,-6.4387,-6.4383,-6.441,-6.435,-6.4355,-6.4312,-6.4275,-6.4301,-6.4267,-6.4255,-6.4262,-6.422,-6.4293,-6.4271,-6.4223,-6.4151,-6.4259,-6.4292,-6.4306,-6.4107,-6.4104,-6.4102,-6.41,0,0,-6.4567,-6.4503,-6.4516,-6.4501,-6.4459,-6.4465,-6.4489,-6.4477,-6.4481,-6.4464,-6.448,-6.4486,-6.444,-6.443,-6.4386,-6.441,-6.4503,-6.4357,-6.4355,-6.4383,-6.4579,-6.4613,-6.4631,-6.4469,-6.4471,-6.4473,-6.458,0,-6.4679,-6.4713,-6.4657,-6.4704,-6.4712,-6.4635,-6.4655,-6.4632,-6.46,-6.4602,-6.4567,-6.457,-6.4511,-6.4504,-6.4525,-6.4488,-6.4541,-6.448,-6.4482,-6.4483,-6.4488,-6.4649,-6.4685,-6.4787,-6.4593,-6.4596,-6.4597,0,-6.4811,-6.4799,-6.4847,-6.4802,-6.4803,-6.4822,-6.4807,-6.4811,-6.4784,-6.4759,-6.4749,-6.4697,-6.4717,-6.4652,-6.4679,-6.4638,-6.4637,-6.4619,-6.4622,-6.4616,-6.4544,-6.4644,-6.4818,-6.4833,-6.4618,-6.4616,-6.4615,0,-6.4942,-6.4939,-6.4966,-6.4957,-6.4906,-6.4921,-6.4901,-6.4871,-6.4867,-6.4855,-6.4852,-6.4843,-6.4837,-6.4832,-6.4779,-6.4737,-6.4812,-6.4743,-6.479,-6.4791,-6.4805,-6.4804,-6.4978,-6.4812,-6.4812,-6.4811,-6.4811,0,-6.507,-6.5101,-6.5024,-6.5041,-6.5074,-6.5012,-6.5047,-6.5019,-6.4993,-6.5003,-6.4939,-6.495,-6.4881,-6.4886,-6.4846,-6.4872,-6.4871,-6.4851,-6.4839,-6.4854,-6.4856,-6.4849,-6.4839,-6.4815,-6.4814,-6.4814,-6.4813,0,-6.522,-6.517,-6.5194,-6.5145,-6.5134,-6.516,-6.5118,-6.5132,-6.5097,-6.5111,-6.5111,-6.5055,-6.5057,-6.5005,-6.4997,-6.497,-6.5013,-6.4991,-6.5022,-6.5013,-6.5062,-6.5057,-6.5234,-6.5253,-6.5078,-6.508,-6.5081,0,-6.5302,-6.5324,-6.5278,-6.528,-6.5262,-6.5267,-6.5263,-6.5203,-6.5202,-6.5174,-6.5191,-6.5188,-6.5181,-6.5187,-6.5147,-6.514,-6.5114,-6.5177,-6.5113,-6.5127,-6.5111,-6.5109,-6.511,-6.5189,-6.5191,-6.5193,-6.5195,0,-6.5452,-6.5427,-6.5423,-6.5412,-6.5409,-6.5397,-6.5381,-6.5387,-6.5322,-6.5324,-6.5325,-6.532,-6.5311,-6.5308,-6.5294,-6.5274,-6.5223,-6.5216,-6.5226,-6.524,-6.5255,-6.5244,-6.5054,-6.5211,-6.5209,-6.5208,-6.5207,-6.5207,-6.5568,-6.5584,-6.5553,-6.5552,-6.5534,-6.5521,-6.5531,-6.5498,-6.5497,-6.5484,-6.545,-6.5456,-6.543,-6.5406,-6.5391,-6.5395,-6.5363,-6.5379,-6.5382,-6.5385,-6.5393,-6.5259,-6.5393,-6.5392,-6.5391,-6.5391,-6.5391,0,-6.5712,-6.5689,-6.5689,-6.5668,-6.5667,-6.5622,-6.5602,-6.5604,-6.561,-6.559,-6.5585,-6.5586,-6.5583,-6.5543,-6.5535,-6.5546,-6.5523,-6.5546,-6.5542,-6.5538,-6.5423,-6.5413,-6.5565,-6.5565,-6.5565,-6.5565,-6.5565,-6.5565,-6.5786,-6.581,-6.5781,-6.5796,-6.5773,-6.5778,-6.5771,-6.5758,-6.5742,-6.5745,-6.5742,-6.5717,-6.5688,-6.5678,-6.5674,-6.5662,-6.5661,-6.5691,-6.5672,-6.5564,-6.5547,-6.553,-6.5521,-6.5692,-6.5693,-6.5786,-6.5787,-6.5787]},{"header":{"parameterUnit":"m.s-1","parameterCategory":1,"la1":30.2991,"la2":30.254,"lo1":-89.0895,"lo2":-89.0444,"dy":0.0017,"dx":0.0017,"nx":28,"ny":28,"refTime":"2024-08-30T09:00:00:Z","depth":0,"parameterNumber":3,"parameterNumberName":"V-component_of_WINDS"},"data":[0,0,0,0,0,0,0,0,0,0,0,0,0,0,0,0,0,0,0,0,0,0,0,0,0,0,0,0,0,0,0,0,0,0,0,0,0,0,0,0,0,0,0,0,0,0,0,0,0,0,0,0,0,0,0,0,0,0,2.5525,2.5526,0,2.5601,2.5601,2.5602,2.564,2.564,2.564,2.564,2.5714,2.5716,2.5717,0,0,0,0,0,0,0,0,0,0,0,0,0,2.541,2.5412,2.5525,2.5526,2.5527,2.56,2.5601,2.5603,2.564,2.564,2.564,2.564,2.5713,2.5715,2.5718,0,0,0,0,0,0,0,0,0,0,0,0,0,2.547,2.5413,2.5525,2.5554,2.5558,2.56,2.5602,2.5603,2.564,2.564,2.564,2.564,2.5712,2.5715,2.5718,2.5735,0,0,2.5727,2.5728,0,0,0,0,0,0,0,0,2.5467,2.5474,2.5549,2.5552,2.5556,2.5611,2.5588,2.5647,2.564,2.5609,2.564,2.564,2.5679,2.5685,2.5699,2.5739,2.5742,2.5727,2.5729,2.573,2.5731,0,0,0,0,0,0,0,2.5463,2.5471,2.5555,2.555,2.5555,2.5563,2.5572,2.56,2.5643,2.5611,2.5614,2.5623,2.5681,2.5696,2.5701,2.5743,2.5727,2.573,2.5731,2.5733,2.5803,2.5803,0,0,0,0,0,0,2.5454,2.5468,2.5552,2.5557,2.5511,2.5565,2.5575,2.5593,2.5643,2.565,2.5623,2.5624,2.5691,2.5697,2.5704,2.5729,2.573,2.5733,2.5734,2.5803,2.5803,2.5803,0,0,0,0,0,0,2.5451,2.5461,2.5549,2.5513,2.5525,2.5567,2.5588,2.5595,2.561,2.5651,2.5659,2.563,2.5691,2.5699,2.5728,2.5731,2.5734,2.5737,2.5803,2.5803,2.5803,2.5777,0,0,0,0,0,0,2.5448,2.546,2.5467,2.5513,2.5527,2.5573,2.5588,2.5596,2.5615,2.5618,2.566,2.5667,2.5692,2.5723,2.5731,2.5736,2.5739,2.5803,2.5803,2.5803,2.5778,2.5777,2.5776,0,0,0,0,0,2.5444,2.5456,2.5468,2.5478,2.5537,2.5573,2.5581,2.561,2.5615,2.5623,2.565,2.5666,2.573,2.5726,2.5735,2.574,2.5802,2.5803,2.5803,2.5779,2.5777,2.5776,0,0,0,0,0,0,2.5407,2.5462,2.5476,2.5503,2.5534,2.5579,2.559,2.5607,2.5635,2.5636,2.567,2.568,2.5705,2.5726,2.572,2.5761,2.5768,2.577,2.5746,2.5745,2.5744,2.5738,2.5741,0,0,0,0,0,2.5403,2.5429,2.5475,2.5494,2.5509,2.5547,2.5563,2.5584,2.5616,2.5628,2.5657,2.5686,2.5714,2.573,2.5757,2.5781,2.5792,2.579,2.5788,2.5787,2.5788,2.5804,2.5804,2.5804,2.5804,2.5804,0,0,2.5393,2.5427,2.544,2.5488,2.5514,2.5539,2.5557,2.5582,2.5601,2.5631,2.5661,2.5683,2.5718,2.5745,2.5758,2.5763,2.5791,2.5788,2.5786,2.5788,2.5804,2.5804,2.5804,2.5804,2.5804,2.5804,0,0,2.5389,2.5416,2.5437,2.5463,2.5502,2.5528,2.5533,2.5576,2.5593,2.5624,2.5647,2.567,2.5715,2.574,2.5758,2.5766,2.5782,2.5774,2.5767,2.5782,2.5782,2.5782,2.5785,2.5786,2.5775,2.5775,2.5775,0,2.5371,2.5411,2.5444,2.547,2.549,2.5521,2.5542,2.5565,2.561,2.5624,2.5629,2.5688,2.5714,2.5748,2.575,2.5763,2.577,2.5769,2.5779,2.578,2.578,2.5784,2.5785,2.5774,2.5774,2.5774,2.5774,0,2.5388,2.5416,2.5427,2.5473,2.5495,2.5518,2.5554,2.5572,2.5591,2.5616,2.5647,2.5679,2.5714,2.5724,2.5741,2.5761,2.5762,2.5773,2.5781,2.5779,2.5783,2.5784,2.5772,2.5772,2.5773,2.5773,0,0,2.5361,2.5427,2.5431,2.5453,2.55,2.5521,2.5546,2.5582,2.5597,2.5628,2.5649,2.5688,2.5699,2.572,2.5741,2.5754,2.5759,2.5763,2.5764,2.5762,2.5784,2.5776,2.5777,2.5771,2.5771,2.5771,2.5781,0,2.5364,2.5411,2.5442,2.5476,2.5503,2.5533,2.5555,2.5585,2.561,2.5635,2.5661,2.5689,2.57,2.5713,2.5728,2.5756,2.5764,2.5755,2.579,2.5791,2.5781,2.5779,2.577,2.5778,2.5783,2.5783,2.5783,0,2.5373,2.5405,2.5442,2.5489,2.5501,2.5519,2.5556,2.558,2.5616,2.5633,2.5658,2.568,2.5707,2.5712,2.575,2.5744,2.576,2.5776,2.5777,2.5781,2.5787,2.5784,2.5781,2.5782,2.5786,2.5786,2.5785,0,2.5351,2.5403,2.5433,2.5451,2.5505,2.5518,2.5541,2.5577,2.5597,2.5629,2.5642,2.5676,2.5694,2.572,2.575,2.5752,2.5785,2.5793,2.58,2.5799,2.5805,2.5805,2.5806,2.5815,2.5815,2.5815,2.5815,0,2.535,2.5372,2.5424,2.5442,2.5468,2.5504,2.5528,2.5553,2.5586,2.5609,2.5637,2.5658,2.5697,2.5723,2.5747,2.5775,2.5783,2.5797,2.5803,2.5795,2.5793,2.5806,2.5807,2.5816,2.5815,2.5815,2.5815,0,2.5329,2.5365,2.54,2.545,2.5463,2.5479,2.5521,2.554,2.5567,2.5596,2.5605,2.5646,2.5679,2.5712,2.5755,2.5771,2.5799,2.5807,2.5787,2.5791,2.5796,2.5795,2.5805,2.5809,2.5815,2.5815,2.5815,0,2.5327,2.5345,2.5397,2.5416,2.5439,2.5468,2.549,2.5526,2.5548,2.5591,2.5605,2.564,2.5669,2.5719,2.5752,2.5786,2.5795,2.5797,2.58,2.5792,2.5796,2.5795,2.5798,2.5795,2.5795,2.5795,2.5795,0,2.5319,2.5337,2.5367,2.5405,2.5431,2.5462,2.5494,2.5507,2.555,2.5572,2.5607,2.563,2.5676,2.571,2.5748,2.577,2.579,2.5794,2.5797,2.5789,2.5777,2.5784,2.5784,2.5793,2.5793,2.5793,2.5793,2.5793,2.5308,2.5326,2.5366,2.54,2.5429,2.5459,2.548,2.551,2.554,2.5581,2.56,2.5635,2.5672,2.5725,2.5748,2.5775,2.578,2.5785,2.5786,2.5787,2.5785,2.5773,2.5782,2.5782,2.5782,2.5782,2.5782,0,2.5302,2.533,2.5361,2.5407,2.5434,2.5452,2.5488,2.5509,2.554,2.5574,2.5603,2.5643,2.5677,2.5714,2.575,2.5765,2.5775,2.5773,2.5773,2.5778,2.5778,2.5772,2.5765,2.5765,2.5765,2.5765,2.5765,2.5765,2.5302,2.5335,2.5357,2.5404,2.5432,2.5468,2.5487,2.5515,2.5542,2.5586,2.5616,2.564,2.5675,2.5715,2.5747,2.5757,2.5769,2.5765,2.5777,2.5776,2.5778,2.5779,2.5773,2.5767,2.5767,2.5775,2.5775,2.5775]}]]